Tracking 30072 objects as of 15-Jan-2025
HD Live streaming from Space Station
objects crossing your sky now

STARLINK-5826

Track STARLINK-5826 now!
10-day predictions
STARLINK-5826 is classified as:


NORAD ID: 55782
Int'l Code: 2023-028AT
Perigee: 577.0 km
Apogee: 581.4 km
Inclination: 70.0 °
Period: 96.1 minutes
Semi major axis: 6950 km
RCS: Unknown
Launch date: March 3, 2023
Source: United States (US)
Launch site: AIR FORCE WESTERN TEST RANGE (AFWTR)
Your satellite tracking list
Your tracking list is empty




NASA's NSSDC Master Catalog

Two Line Element Set (TLE):
1 55782U 23028AT  25014.85060695  .00000068  00000-0  13454-4 0  9998
2 55782  69.9995 180.6770 0003114 269.3324  90.7479 14.98330949104284
Source of the keplerian elements: AFSPC